Weather History for KLSE - January, 2013

Change the Weather History Date:

Monday, January 7, 2013

  Actual Average Record
Temperature  
Mean Temperature 27 °F 17 °F  
Max Temperature 37 °F 25 °F 56 °F (2003)
Min Temperature 16 °F 9 °F -34 °F (1912)
Degree Days  
Heating Degree Days 38 48  
Month to date heating degree days 333 332  
Since 1 July heating degree days 3023 3176  
Cooling Degree Days 0 0  
Month to date cooling degree days 0 0  
Year to date cooling degree days 0 0  
Moisture  
Dew Point 19 °F    
Average Humidity 72    
Maximum Humidity 88    
Minimum Humidity 56    
Precipitation  
Precipitation 0.00 in 0.04 in 0.53 in (1907)
Month to date precipitation T 0.24  
Year to date precipitation T 0.24  
Snow  
Snow 0.00 in 0.30 in 6.00 in (1913)
Month to date snowfall T 2.0  
Since 1 July snowfall 18.4 17.6  
Snow Depth 5.00 in    
Sea Level Pressure  
Sea Level Pressure 30.08 in    
Wind  
Wind Speed 11 mph (South)    
Max Wind Speed 22 mph    
Max Gust Speed 28 mph    
Visibility 10 miles    
Events      
T = Trace of Precipitation, MM = Missing Value Source: NWS Daily Summary

Daily Weather History Graph

Daily Weather History Graph

Search for Another Location

Airport or City:

Trip Planner

Search our weather history database for the weather conditions in past years. The results will help you decide how hot, cold, wet, or windy it might be!

Date:

Astronomy

Jan. 07, 2013 Rise Set
Actual Time 7:38 AM CST 4:44 PM CST
Civil Twilight 7:06 AM CST 5:16 PM CST
Nautical Twilight 6:30 AM CST 5:52 PM CST
Astronomical Twilight 5:55 AM CST 6:27 PM CST
Moon 3:00 AM CST (1/7) 12:57 PM CST (1/7)
Length of Visible Light 10h 10m
Length of Day
9h 05m
Waning Crescent, 22% of the Moon is Illuminated
Jan 7
Waning Crescent
Jan 11
New
Jan 18
First Quarter
Jan 26
Full
Feb 3
Last Quarter

Hourly Weather History & Observations

Time (CST) Temp. Windchill Dew Point Humidity Pressure Visibility Wind Dir Wind Speed Gust Speed Precip Events Conditions
12:53 AM 16.0 °F 1.7 °F 10.0 °F 77% 30.24 in 10.0 mi South 13.8 mph - N/A   Clear
1:53 AM 17.1 °F 3.6 °F 10.0 °F 74% 30.22 in 10.0 mi South 12.7 mph - N/A   Clear
2:53 AM 16.0 °F 2.3 °F 10.0 °F 77% 30.21 in 10.0 mi SE 12.7 mph - N/A   Clear
3:53 AM 19.0 °F 5.6 °F 12.0 °F 74% 30.15 in 10.0 mi SSE 13.8 mph - N/A   Clear
4:53 AM 21.0 °F 5.0 °F 14.0 °F 74% 30.09 in 10.0 mi South 21.9 mph 27.6 mph N/A   Clear
6:53 AM 23.0 °F 9.2 °F 14.0 °F 68% 30.07 in 10.0 mi South 17.3 mph 25.3 mph N/A   Clear
7:53 AM 24.1 °F 11.0 °F 15.1 °F 69% 30.08 in 10.0 mi South 16.1 mph - N/A   Clear
8:53 AM 25.0 °F 13.6 °F 16.0 °F 69% 30.08 in 10.0 mi South 12.7 mph - N/A   Clear
9:53 AM 28.9 °F 19.8 °F 18.0 °F 64% 30.07 in 10.0 mi South 10.4 mph - N/A   Clear
10:53 AM 35.1 °F 24.8 °F 21.9 °F 59% 30.06 in 10.0 mi SSW 17.3 mph 27.6 mph N/A   Clear
11:53 AM 34.0 °F 24.2 °F 21.9 °F 61% 30.04 in 10.0 mi SSW 15.0 mph - N/A   Clear
12:53 PM 36.0 °F 26.3 °F 23.0 °F 59% 30.00 in 10.0 mi SW 16.1 mph - N/A   Clear
1:53 PM 36.0 °F 28.5 °F 24.1 °F 62% 30.00 in 10.0 mi SW 10.4 mph - N/A   Clear
2:53 PM 36.0 °F 27.1 °F 25.0 °F 64% 30.02 in 10.0 mi SW 13.8 mph - N/A   Clear
3:53 PM 33.1 °F 26.9 °F 25.0 °F 72% 30.03 in 10.0 mi SSW 6.9 mph - N/A   Clear
5:53 PM 33.1 °F 26.9 °F 24.1 °F 70% 30.03 in 10.0 mi South 6.9 mph - N/A   Clear
6:53 PM 30.9 °F 27.5 °F 24.1 °F 76% 30.04 in 10.0 mi SSE 3.5 mph - N/A   Clear
7:53 PM 28.9 °F 21.9 °F 23.0 °F 78% 30.04 in 10.0 mi South 6.9 mph - N/A   Clear
8:53 PM 27.0 °F 21.6 °F 21.9 °F 81% 30.04 in 10.0 mi South 4.6 mph - N/A   Clear
9:53 PM 25.0 °F - 21.0 °F 85% 30.06 in 10.0 mi Calm Calm - N/A   Clear
10:53 PM 24.1 °F 17.0 °F 21.0 °F 88% 30.05 in 10.0 mi South 5.8 mph - N/A   Clear
11:53 PM 21.9 °F 14.5 °F 19.9 °F 92% 30.05 in 10.0 mi South 5.8 mph - N/A   Clear